sat.trackr.live / text

‹ back to catalog

DONGPO 03

NORAD 53450 · 2022-098G

PAYLOAD ACTIVE UNKNOWN

§ Identity

Operator
Country
PRC
Launch date
2022-08-10
Launch site
TAISC
Launch vehicle
Mass (kg)
RCS (m²)

External: N2YO · Heavens-Above · Gunter

§ Orbital elements

Epoch: 2026-06-08T21:06:42.288768Z

Period
87.83 min
Inclination
97.5472°
Eccentricity
0.0012929
Mean motion
16.39559397 rev/d
Perigee alt
158.5 km
Apogee alt
175.4 km
Semi-major
6,545.1 km
B*
5.0878e-4
RAAN
297.7915°
Arg perigee
266.8122°
Mean anomaly
93.1698°
Rev number
21,388

§ Raw data

DONGPO 031 53450U 22098G   26159.87965612  .06377175  26384-5  50878-3 0  99902 53450  97.5472 297.7915 0012929 266.8122  93.1698 16.39559397213888

JSON: /api/v1/satellites/53450 · /tle

For live sub-satellite position, see the globe view (requires WebGL).

§ Visibility from observer

Set your observer location to see the next 7 days of passes ≥ 10°. The values pass through the URL so the page stays shareable.

No JS? Fill the form by hand. The geolocation button needs JavaScript.